"2009-09-27 00:00:00",1276128,9.42,314.1,2.878,0.327,21.53,110.2336,25.49,26.49,11.21,0,111.2,13.12,26.34,276.1
"2009-09-27 00:00:30",1276129,10.5,312.3,1.659,0.186,21.51,110.2336,25.49,26.5,11.24,0,111.2,13.12,26.34,274.3
"2009-09-27 00:01:00",1276130,10.28,316.5,1.8,0.197,21.48,110.2351,25.5,26.5,11.31,0,111.2,13.12,26.34,278.5
"2009-09-27 00:01:30",1276131,9.85,314.2,2.758,0.22,21.46,110.2345,25.5,26.51,11.41,0,111.2,13.12,26.34,276.2
"2009-09-27 00:02:00",1276132,10.97,312.1,1.193,0.456,21.41,110.2357,25.5,26.51,11.42,0,111.2,13.12,26.34,274.1
"2009-09-27 00:02:30",1276133,11.07,310.1,1.287,0.647,21.42,110.237,25.5,26.51,11.47,0,111.2,13.12,26.34,272.1
"2009-09-27 00:03:00",1276134,10.87,310,2.414,0.233,21.4,110.2398,25.51,26.51,11.42,0,111.2,13.12,26.35,272.0
"2009-09-27 00:03:30",1276135,11.24,310.2,1.592,0.328,21.33,110.2386,25.51,26.51,11.6,0,111.2,13.12,26.35,272.2
"2009-09-27 00:04:00",1276136,10.58,312,2.253,0.397,21.35,110.2404,25.51,26.51,11.67,0,111.2,13.12,26.35,274.0
"2009-09-27 00:04:30",1276137,10.79,310.8,1.69,0.482,21.39,110.241,25.51,26.51,11.65,0,111.2,13.12,26.35,272.8
"2009-09-27 00:05:00",1276138,10.6,310.3,1.589,0.332,21.37,110.241,25.51,26.49,11.58,0,111.2,13.12,26.35,272.3
"2009-09-27 00:05:30",1276139,9.56,308.3,2.73,0.422,21.29,110.242,25.52,26.49,11.71,0,111.2,13.12,26.36,270.3
"2009-09-27 00:06:00",1276140,10.5,308.8,1.898,0.525,21.45,110.242,25.52,26.49,11.73,0,111.2,13.12,26.36,270.8
"2009-09-27 00:06:30",1276141,10.83,309.8,1.096,0.17,21.61,110.2426,25.52,26.47,11.5,0,111.2,13.12,26.36,271.8
"2009-09-27 00:07:00",1276142,11.05,311.9,1.481,0.443,21.5,110.2423,25.52,26.48,11.45,0,111.2,13.12,26.36,273.9
"2009-09-27 00:07:30",1276143,11.1,311.4,1.27,0.246,21.52,110.238,25.51,26.49,11.34,0,111.2,13.12,26.35,273.4
"2009-09-27 00:08:00",1276144,11.63,313.3,1.201,0.181,21.55,110.2297,25.48,26.48,11.32,0,111.2,13.12,26.33,275.3
"2009-09-27 00:08:30",1276145,11.63,314.6,0.696,0.264,21.47,110.2201,25.46,26.46,11.32,0,111.2,13.12,26.30,276.6
"2009-09-27 00:09:00",1276146,12.16,314.9,1.174,0.206,21.56,110.2176,25.45,26.47,11.27,0,111.2,13.12,26.29,276.9
"2009-09-27 00:09:30",1276147,11.72,313.2,1.242,0.19,21.56,110.2151,25.45,26.44,11.21,0,111.2,13.12,26.29,275.2
"2009-09-27 00:10:00",1276148,11.54,312.8,0.914,0.291,21.62,110.2117,25.44,26.45,11.17,0,111.2,13.12,26.28,274.8
"2009-09-27 00:10:30",1276149,11.04,312.8,1.162,0.228,21.58,110.2097,25.43,26.44,11.16,0,111.2,13.12,26.27,274.8
"2009-09-27 00:11:00",1276150,10.75,312,1.937,0.345,21.56,110.2092,25.43,26.44,11.22,0,111.2,13.12,26.27,274.0
"2009-09-27 00:11:30",1276151,10.96,311.2,1.437,0.53,21.64,110.2089,25.43,26.43,11.23,0,111.2,13.12,26.27,273.2
"2009-09-27 00:12:00",1276152,11.44,309.6,1.745,0.304,21.65,110.2089,25.43,26.42,11.14,0,111.2,13.12,26.27,271.6
"2009-09-27 00:12:30",1276153,11.19,312.7,4.708,0.391,21.67,110.2089,25.43,26.42,11.15,0,111.2,13.12,26.27,274.7
"2009-09-27 00:13:00",1276154,9.82,317.7,3.321,0.479,21.68,110.2089,25.43,26.42,11.04,0,111.2,13.12,26.27,279.7
"2009-09-27 00:13:30",1276155,8.88,312.3,4.464,0.655,21.66,110.2083,25.43,26.41,11.08,0,111.2,13.12,26.27,274.3
"2009-09-27 00:14:00",1276156,9.11,315.4,2.322,0.517,21.67,110.1988,25.41,26.4,11.11,0,111.2,13.12,26.25,277.4
"2009-09-27 00:14:30",1276157,10.59,310.9,1.997,0.237,21.67,110.1901,25.38,26.4,11.15,0,111.2,13.12,26.22,272.9
"2009-09-27 00:15:00",1276158,10.49,313.7,1.82,0.357,21.65,110.1845,25.37,26.38,11.18,0,111.2,13.12,26.21,275.7
"2009-09-27 00:15:30",1276159,9.95,312.4,1.861,0.387,21.64,110.1836,25.37,26.39,11.19,0,111.2,13.12,26.21,274.4
"2009-09-27 00:15:30",1276160,9.83,313,1.405,0.275,21.63,110.1828,25.36,26.39,11.21,0,111.2,13.12,26.20,275.0
"2009-09-27 00:16:00",1276161,9.62,314.6,1.02,0.188,21.61,110.1828,25.36,26.38,11.22,0,111.2,13.12,26.20,276.6
"2009-09-27 00:16:30",1276162,9.36,313.9,1.313,0.464,21.64,110.1819,25.36,26.37,11.21,0,111.2,13.12,26.20,275.9
"2009-09-27 00:17:00",1276163,10.49,309.8,1.264,0.433,21.64,110.18,25.36,26.38,11.18,0,111.2,13.12,26.20,271.8
"2009-09-27 00:17:30",1276164,10.6,310,0.946,0.161,21.65,110.1788,25.35,26.38,11.14,0,111.2,13.12,26.19,272.0
"2009-09-27 00:18:00",1276165,10.88,311.5,1.367,0.281,21.66,110.1774,25.35,26.39,11.13,0,111.2,13.12,26.19,273.5
"2009-09-27 00:18:30",1276166,10.5,312.2,1.266,0.397,21.69,110.1783,25.35,26.37,11.09,0,111.2,13.12,26.19,274.2
"2009-09-27 00:19:00",1276167,10.41,310.6,1.122,0.16,21.67,110.1755,25.35,26.37,11.08,0,111.2,13.12,26.19,272.6
"2009-09-27 00:19:30",1276168,10.28,311.2,0.833,0.155,21.67,110.1758,25.35,26.38,11.1,0,111.2,13.12,26.19,273.2
"2009-09-27 00:20:00",1276169,10.17,311.4,0.856,0.274,21.66,110.1755,25.35,26.38,11.1,0,111.2,13.12,26.19,273.4
"2009-09-27 00:20:30",1276170,10.18,311.9,0.886,0.204,21.62,110.1752,25.34,26.37,11.16,0,111.2,13.12,26.19,273.9
"2009-09-27 00:21:00",1276171,9.92,313.2,1.042,0.188,21.65,110.1752,25.34,26.39,11.14,0,111.2,13.12,26.19,275.2
"2009-09-27 00:21:30",1276172,10.04,313,1.309,0.148,21.66,110.1755,25.35,26.37,11.18,0,111.2,13.12,26.19,275.0
"2009-09-27 00:22:00",1276173,10.7,313.8,0.768,0.159,21.61,110.1752,25.34,26.38,11.18,0,111.2,13.12,26.19,275.8
"2009-09-27 00:22:30",1276174,10.9,314.4,0.975,0.196,21.61,110.1752,25.34,26.37,11.24,0,111.1,13.12,26.19,276.4
"2009-09-27 00:23:00",1276175,10.7,313.6,0.996,0.132,21.62,110.1752,25.34,26.39,11.23,0,111.2,13.12,26.19,275.6
"2009-09-27 00:23:30",1276176,10.74,311.8,1.022,0.152,21.65,110.1758,25.35,26.38,11.25,0,111.1,13.12,26.19,273.8
"2009-09-27 00:24:00",1276177,10.54,313.6,1.024,0.177,21.63,110.1758,25.35,26.36,11.24,0,111.2,13.12,26.19,275.6
"2009-09-27 00:24:30",1276178,10.54,312.8,1.558,0.162,21.68,110.178,25.35,26.39,11.24,0,111.1,13.12,26.19,274.8
"2009-09-27 00:25:00",1276179,10.37,315.9,0.799,0.134,21.72,110.1802,25.36,26.36,11.21,0,111.1,13.12,26.20,277.9
"2009-09-27 00:25:30",1276180,10.15,317,1.39,0.114,21.7,110.1802,25.36,26.37,11.22,0,111.1,13.12,26.20,279.0
"2009-09-27 00:26:00",1276181,9.71,317.4,1.413,0.193,21.71,110.1832,25.37,26.37,11.22,0,111.1,13.12,26.21,279.4
"2009-09-27 00:26:30",1276182,9.52,314.3,1.754,0.23,21.69,110.1862,25.37,26.36,11.21,0,111.1,13.12,26.21,276.3
"2009-09-27 00:27:00",1276183,9.91,313.3,1.298,0.454,21.67,110.1855,25.37,26.35,11.21,0,111.1,13.12,26.21,275.3
"2009-09-27 00:27:30",1276184,10.14,314.3,1.967,0.243,21.7,110.1804,25.36,26.35,11.22,0,111.1,13.12,26.20,276.3
"2009-09-27 00:28:00",1276185,9.75,313.4,1.996,0.35,21.74,110.1772,25.35,26.34,11.19,0,111.1,13.12,26.19,275.4
"2009-09-27 00:28:30",1276186,9.62,311.4,1.399,0.167,21.71,110.1756,25.35,26.34,11.17,0,111.1,13.12,26.19,273.4
"2009-09-27 00:29:00",1276187,9.84,311.7,1.141,0.163,21.68,110.1756,25.35,26.34,11.2,0,111.1,13.12,26.19,273.7
"2009-09-27 00:29:30",1276188,9.74,314.8,0.777,0.188,21.74,110.173,25.34,26.33,11.22,0,111.1,13.12,26.18,276.8
"2009-09-27 00:30:00",1276189,9.7,314,1.111,0.193,21.68,110.1699,25.33,26.33,11.23,0,111.1,13.12,26.17,276.0
"2009-09-27 00:30:30",1276190,9.81,314.2,1.173,0.239,21.7,110.1693,25.33,26.31,11.25,0,111.1,13.13,26.17,276.2
"2009-09-27 00:31:00",1276191,9.49,313.6,0.962,0.188,21.73,110.1693,25.33,26.32,11.23,0,111.1,13.13,26.17,275.6
"2009-09-27 00:31:30",1276192,9.83,312.5,1.454,0.264,21.74,110.1693,25.33,26.31,11.22,0,111.1,13.13,26.17,274.5
"2009-09-27 00:32:00",1276193,10.31,314.1,1.861,0.279,21.77,110.1697,25.33,26.31,11.18,0,111.1,13.13,26.17,276.1
"2009-09-27 00:32:30",1276194,10.67,314.4,1.962,0.258,21.81,110.1679,25.33,26.3,11.16,0,111.1,13.13,26.17,276.4
"2009-09-27 00:33:00",1276195,10.5,312.8,1.751,0.236,21.79,110.1619,25.31,26.3,11.15,0,111.1,13.13,26.15,274.8
"2009-09-27 00:33:30",1276196,10.27,314.6,1.441,0.305,21.79,110.149,25.28,26.28,11.14,0,111.1,13.13,26.12,276.6
"2009-09-27 00:34:00",1276197,10.49,312.6,1.392,0.242,21.77,110.1487,25.28,26.28,11.16,0,111.1,13.13,26.12,274.6
"2009-09-27 00:34:30",1276198,10.05,317.5,2.624,0.143,21.79,110.1465,25.27,26.28,11.14,0,111.1,13.13,26.11,279.5
"2009-09-27 00:35:00",1276199,10.4,318,1.511,0.239,21.82,110.1428,25.26,26.27,11.14,0,111.1,13.13,26.10,280.0
"2009-09-27 00:35:30",1276200,10.78,314.9,1.572,0.306,21.81,110.1428,25.26,26.27,11.16,0,111.1,13.13,26.10,276.9
"2009-09-27 00:36:00",1276201,10.39,315.8,2.4,0.266,21.85,110.1434,25.26,26.25,11.19,0,111.1,13.13,26.10,277.8
"2009-09-27 00:36:30",1276202,9.89,314.8,2.386,0.208,21.93,110.1443,25.27,26.24,11.13,0,111.1,13.13,26.11,276.8
"2009-09-27 00:37:00",1276203,9.92,313.4,1.013,0.267,21.9,110.1446,25.27,26.25,11.16,0,111.1,13.13,26.11,275.4
"2009-09-27 00:37:30",1276204,10.09,313.7,1.18,0.287,21.95,110.1399,25.25,26.23,11.16,0,111.1,13.13,26.09,275.7
"2009-09-27 00:38:00",1276205,10.05,316.9,1.985,0.233,22.03,110.1337,25.24,26.22,11.07,0,111.1,13.13,26.08,278.9
"2009-09-27 00:38:30",1276206,9.31,318.3,1.798,0.165,21.97,110.1199,25.2,26.21,11.07,0,111.1,13.13,26.04,280.3
"2009-09-27 00:39:00",1276207,9.27,314.5,2.695,0.298,21.96,110.1115,25.18,26.21,11.09,0,111.1,13.14,26.02,276.5
"2009-09-27 00:39:30",1276208,9.45,313.6,1.642,0.19,21.92,110.1112,25.18,26.19,11.19,0,111.1,13.13,26.02,275.6
"2009-09-27 00:40:00",1276209,9.78,313.1,0.929,0.133,21.94,110.1112,25.18,26.19,11.26,0,111.1,13.14,26.02,275.1
"2009-09-27 00:40:30",1276210,9.84,314.5,1.789,0.142,22.01,110.1106,25.18,26.18,11.24,0,111.1,13.14,26.02,276.5
"2009-09-27 00:41:00",1276211,10.09,315,1.706,0.268,22,110.0977,25.15,26.16,11.14,0,111.1,13.13,25.99,277.0
"2009-09-27 00:41:30",1276212,10.07,315,0.901,0.156,22.05,110.0843,25.11,26.15,11.12,0,111.1,13.13,25.95,277.0
"2009-09-27 00:42:00",1276213,10.28,315.4,0.867,0.219,21.97,110.0775,25.09,26.13,11.16,0,111.1,13.13,25.93,277.4
"2009-09-27 00:42:30",1276214,9.93,316.8,1.399,0.392,21.94,110.0775,25.09,26.12,11.1,0,111.1,13.13,25.93,278.8
"2009-09-27 00:43:00",1276215,10.87,317.9,1.349,0.241,22,110.0775,25.09,26.11,11.11,0,111.1,13.13,25.93,279.9
"2009-09-27 00:43:30",1276216,10.9,319.2,1.318,0.284,22,110.0753,25.09,26.11,11.09,0,111.1,13.13,25.93,281.2
"2009-09-27 00:44:00",1276217,11.42,319,1.016,0.444,22.04,110.0643,25.06,26.1,11.08,0,111.1,13.13,25.90,281.0
"2009-09-27 00:44:30",1276218,11.75,317.7,1.473,0.304,22.02,110.0539,25.03,26.08,11.02,0,111.1,13.13,25.87,279.7
"2009-09-27 00:45:00",1276219,11.53,317.4,0.899,0.179,22,110.0444,25.01,26.07,11.03,0,111.1,13.13,25.85,279.4
"2009-09-27 00:45:30",1276220,11.14,317.9,1.815,0.191,21.95,110.0438,25.01,26.05,11.11,0,111.1,13.13,25.85,279.9
"2009-09-27 00:46:00",1276221,11.04,318.6,1.478,0.349,21.96,110.0438,25.01,26.04,11.11,0,111.1,13.14,25.85,280.6
"2009-09-27 00:46:30",1276222,10.94,317.9,1.726,0.181,21.9,110.0438,25.01,26.04,11.16,0,111.1,13.14,25.85,279.9
"2009-09-27 00:47:00",1276223,10.55,316,0.818,0.216,21.9,110.0416,25,26.01,11.2,0,111.1,13.14,25.84,278.0
"2009-09-27 00:47:30",1276224,10.11,316.2,1.747,0.197,21.91,110.0326,24.98,26,11.22,0,111.1,13.14,25.82,278.2
"2009-09-27 00:48:00",1276225,10.4,318.6,2.015,0.181,21.97,110.0209,24.95,26.01,11.14,0,111.1,13.14,25.79,280.6
"2009-09-27 00:48:30",1276226,9.85,318.5,1.791,0.445,21.93,110.0186,24.94,25.98,11.14,0,111.1,13.14,25.78,280.5
"2009-09-27 00:49:00",1276227,9.68,319.1,2.069,0.327,21.93,110.0157,24.93,25.97,11.17,0,111.1,13.14,25.77,281.1
"2009-09-27 00:49:30",1276228,10,316.5,1.583,0.293,21.85,110.0256,24.96,25.96,11.23,0,111.1,13.14,25.80,278.5
"2009-09-27 00:50:00",1276229,10.26,314.6,1.407,0.246,21.9,110.0333,24.98,25.98,11.28,0,111.1,13.14,25.82,276.6
"2009-09-27 00:50:30",1276230,10.56,315.1,1.668,0.3,22.01,110.0361,24.99,25.95,11.12,0,111.1,13.14,25.83,277.1
"2009-09-27 00:51:00",1276231,10.05,316.5,1.477,0.313,21.91,110.0311,24.97,25.94,11.16,0,111.1,13.14,25.81,278.5
"2009-09-27 00:51:30",1276232,9.97,315.1,1.795,0.284,21.83,110.0185,24.94,25.93,11.24,0,111.1,13.14,25.78,277.1
"2009-09-27 00:52:00",1276233,10.22,316.5,1.237,0.27,21.83,110.0081,24.92,25.91,11.23,0,111.1,13.14,25.75,278.5
"2009-09-27 00:52:30",1276234,10.39,319.6,1.642,0.456,21.93,110.0045,24.91,25.91,11.15,0,111.1,13.14,25.74,281.6
"2009-09-27 00:53:00",1276235,10.15,319.9,1.338,0.203,21.89,110.0054,24.91,25.89,11.12,0,111.1,13.15,25.75,281.9
"2009-09-27 00:53:30",1276236,10.39,322.2,1.849,0.362,21.89,110.0104,24.92,25.9,11.14,0,111.1,13.15,25.76,284.2
"2009-09-27 00:54:00",1276237,10.74,322.1,0.687,0.363,21.85,110.0098,24.92,25.88,11.18,0,111.1,13.15,25.76,284.1
"2009-09-27 00:54:30",1276238,10.71,322.7,1.185,0.159,21.83,110.0055,24.91,25.86,11.21,0,111.1,13.15,25.75,284.7
"2009-09-27 00:55:00",1276239,10.35,323.3,1.765,0.155,21.84,109.9974,24.89,25.86,11.24,0,111.1,13.15,25.73,285.3
"2009-09-27 00:55:30",1276240,9.78,323.2,1.623,0.143,21.87,109.982,24.85,25.85,11.19,0,111.1,13.15,25.69,285.2
"2009-09-27 00:56:00",1276241,9.69,322.4,1.041,0.219,21.8,109.9797,24.84,25.84,11.26,0,111.1,13.15,25.68,284.4
"2009-09-27 00:56:30",1276242,9.46,322,1.929,0.257,21.79,109.9798,24.84,25.84,11.28,0,111,13.15,25.68,284.0
"2009-09-27 00:57:00",1276243,9.28,321.6,1.299,0.165,21.73,109.9798,24.84,25.83,11.31,0,111,13.15,25.68,283.6
"2009-09-27 00:57:30",1276244,9.76,319.2,1.347,0.522,21.79,109.9798,24.84,25.82,11.32,0,111,13.15,25.68,281.2
"2009-09-27 00:58:00",1276245,10.35,319.1,2.464,0.227,21.79,109.9781,24.84,25.81,11.3,0,111,13.15,25.68,281.1
"2009-09-27 00:58:30",1276246,10.09,312.5,1.581,0.147,21.74,109.9643,24.8,25.8,11.33,0,111,13.15,25.64,274.5
"2009-09-27 00:59:00",1276247,10.22,315,1.069,0.317,21.83,109.9562,24.78,25.79,11.34,0,111,13.14,25.62,277.0
"2009-09-27 00:59:30",1276248,10.39,315.5,1.065,0.173,21.82,109.9466,24.76,25.78,11.31,0,111,13.14,25.60,277.5
"2009-09-27 01:00:00",1276249,10.63,316.6,1.135,0.356,21.82,109.946,24.76,25.77,11.32,0,111,13.14,25.59,278.6
"2009-09-27 01:00:30",1276250,10.43,314.4,2.271,0.189,21.73,109.946,24.76,25.76,11.33,0,111,13.14,25.59,276.4
"2009-09-27 01:01:00",1276251,10,315,2.363,0.275,21.71,109.946,24.76,25.75,11.37,0,111,13.14,25.59,277.0
"2009-09-27 01:01:30",1276252,10.91,314.2,2.664,0.407,21.73,109.9435,24.75,25.73,11.38,0,111,13.14,25.59,276.2
"2009-09-27 01:02:00",1276253,11.11,315.9,1.762,0.331,21.7,109.9284,24.71,25.72,11.38,0,111,13.14,25.55,277.9
"2009-09-27 01:02:30",1276254,11.32,314,0.882,0.222,21.74,109.9168,24.68,25.73,11.38,0,111,13.14,25.52,276.0
"2009-09-27 01:03:00",1276255,11.39,311.4,2.6,0.232,21.73,109.9129,24.67,25.7,11.35,0,111,13.15,25.51,273.4
"2009-09-27 01:03:30",1276256,11.39,312.7,1.9,0.27,21.7,109.9136,24.67,25.7,11.34,0,111,13.15,25.51,274.7
"2009-09-27 01:04:00",1276257,10.73,314,2.693,0.351,21.71,109.9133,24.67,25.69,11.39,0,111,13.15,25.51,276.0
"2009-09-27 01:04:30",1276258,10.75,310.7,1.122,0.161,21.64,109.9143,24.67,25.67,11.4,0,111,13.15,25.51,272.7
"2009-09-27 01:05:00",1276259,10.02,312.3,1.015,0.296,21.62,109.9053,24.65,25.67,11.43,0,111,13.15,25.49,274.3
"2009-09-27 01:05:30",1276260,10.09,312.2,1.5,0.344,21.63,109.8942,24.62,25.65,11.47,0,111,13.15,25.46,274.2
"2009-09-27 01:06:00",1276261,10.97,313.2,1.021,0.317,21.67,109.8817,24.59,25.63,11.44,0,111,13.15,25.43,275.2
"2009-09-27 01:06:30",1276262,11.11,314.3,0.934,0.197,21.7,109.8811,24.59,25.63,11.41,0,111,13.15,25.43,276.3
"2009-09-27 01:07:00",1276263,11.61,311.4,1.421,0.299,21.67,109.8833,24.59,25.61,11.37,0,111,13.15,25.43,273.4
"2009-09-27 01:07:30",1276264,11.49,309.8,1.67,0.479,21.62,109.8792,24.58,25.6,11.39,0,111,13.15,25.42,271.8
"2009-09-27 01:08:00",1276265,10.53,313.1,1.369,0.231,21.63,109.8679,24.56,25.6,11.4,0,111,13.15,25.39,275.1
"2009-09-27 01:08:30",1276266,10.72,311.7,0.844,0.338,21.62,109.8582,24.53,25.58,11.4,0,111,13.16,25.37,273.7
"2009-09-27 01:09:00",1276267,11.29,313.1,1.362,0.221,21.62,109.8563,24.53,25.57,11.4,0,111,13.16,25.36,275.1
"2009-09-27 01:09:30",1276268,11.01,312.6,0.941,0.314,21.61,109.8588,24.53,25.55,11.42,0,111,13.16,25.37,274.6
"2009-09-27 01:10:00",1276269,11.17,311.2,0.965,0.222,21.61,109.864,24.55,25.54,11.43,0,111,13.16,25.38,273.2
"2009-09-27 01:10:30",1276270,11.31,310,0.936,0.204,21.59,109.8668,24.55,25.54,11.41,0,111,13.16,25.39,272.0
"2009-09-27 01:11:00",1276271,10.9,311.9,1.185,0.284,21.61,109.8587,24.53,25.51,11.43,0,111,13.16,25.37,273.9
"2009-09-27 01:11:30",1276272,11.18,310.6,1.246,0.225,21.61,109.8445,24.5,25.49,11.45,0,111,13.16,25.33,272.6
"2009-09-27 01:12:00",1276273,10.79,311.4,1.466,0.172,21.57,109.8395,24.48,25.48,11.47,0,111,13.16,25.32,273.4
"2009-09-27 01:12:30",1276274,10.42,313,1.762,0.349,21.6,109.839,24.48,25.48,11.49,0,111,13.16,25.32,275.0
"2009-09-27 01:13:00",1276275,10.55,312.6,1.988,0.371,21.57,109.839,24.48,25.47,11.5,0,111,13.16,25.32,274.6
"2009-09-27 01:13:30",1276276,11.03,310.8,2.013,0.229,21.58,109.8387,24.48,25.46,11.47,0,111,13.16,25.32,272.8
"2009-09-27 01:14:00",1276277,10.8,308.7,3.071,0.468,21.69,109.8362,24.47,25.45,11.41,0,111,13.16,25.31,270.7
"2009-09-27 01:14:30",1276278,10.52,308.9,1.148,0.39,21.66,109.8224,24.44,25.43,11.37,0,111,13.16,25.28,270.9
"2009-09-27 01:15:00",1276279,9.98,307,1.134,0.226,21.65,109.8167,24.42,25.42,11.41,0,111,13.16,25.26,269.0
"2009-09-27 01:15:30",1276280,9.98,305,1.106,0.225,21.6,109.8122,24.41,25.42,11.42,0,111,13.15,25.25,267.0
"2009-09-27 01:16:00",1276281,9.49,309.8,1.706,0.253,21.59,109.8114,24.41,25.4,11.45,0,111,13.15,25.25,271.8
"2009-09-27 01:16:30",1276282,9.64,313.5,1.703,0.259,21.58,109.8123,24.41,25.39,11.5,0,111,13.15,25.25,275.5
"2009-09-27 01:17:00",1276283,9.75,314.2,1.41,0.3,21.63,109.8139,24.42,25.38,11.52,0,111,13.15,25.25,276.2
"2009-09-27 01:17:30",1276284,9.72,310.4,2.57,0.507,21.68,109.8145,24.42,25.38,11.48,0,111,13.15,25.26,272.4
"2009-09-27 01:18:00",1276285,9.17,308.6,2.117,0.468,21.69,109.8142,24.42,25.38,11.38,0,111,13.15,25.25,270.6
"2009-09-27 01:18:30",1276286,8.81,310.1,1.934,0.261,21.61,109.8145,24.42,25.36,11.45,0,111,13.15,25.26,272.1
"2009-09-27 01:19:00",1276287,9.29,313.1,1.405,0.21,21.56,109.8122,24.41,25.37,11.47,0,111,13.15,25.25,275.1
"2009-09-27 01:19:30",1276288,10.02,313,2.009,0.28,21.58,109.8044,24.39,25.36,11.49,0,111,13.15,25.23,275.0
"2009-09-27 01:20:00",1276289,9.7,311.5,1.768,0.436,21.59,109.7915,24.36,25.34,11.46,0,111,13.16,25.20,273.5
"2009-09-27 01:20:30",1276290,9,310.1,1.445,0.466,21.58,109.7855,24.34,25.36,11.45,0,111,13.16,25.18,272.1
"2009-09-27 01:21:00",1276291,9.04,311.7,1.155,0.679,21.55,109.7811,24.33,25.32,11.49,0,111,13.16,25.17,273.7
"2009-09-27 01:21:30",1276292,9.5,316.4,1.66,0.194,21.49,109.7808,24.33,25.33,11.54,0,111,13.16,25.17,278.4
"2009-09-27 01:22:00",1276293,9.47,319.4,1.507,0.197,21.5,109.7808,24.33,25.33,11.59,0,111,13.16,25.17,281.4
"2009-09-27 01:22:30",1276294,9.02,318.6,2.061,0.391,21.49,109.7808,24.33,25.32,11.58,0,111,13.16,25.17,280.6
"2009-09-27 01:23:00",1276295,9.49,316.2,2.268,0.253,21.54,109.7808,24.33,25.31,11.58,0,111,13.16,25.17,278.2
"2009-09-27 01:23:30",1276296,9.07,312.8,2.019,0.303,21.59,109.7805,24.33,25.31,11.52,0,110.9,13.16,25.17,274.8
"2009-09-27 01:24:00",1276297,8.29,313.3,1.879,0.24,21.54,109.7704,24.3,25.31,11.54,0,111,13.16,25.14,275.3
"2009-09-27 01:24:30",1276298,7.515,311,1.81,0.462,21.5,109.7586,24.27,25.28,11.54,0,111,13.16,25.11,273.0
"2009-09-27 01:25:00",1276299,8.8,313.3,1.62,0.311,21.64,109.749,24.25,25.26,11.48,0,110.9,13.17,25.09,275.3
"2009-09-27 01:25:30",1276300,8.8,316.8,1.978,0.283,21.53,109.747,24.24,25.27,11.49,0,110.9,13.17,25.08,278.8
"2009-09-27 01:26:00",1276301,8.31,312.2,4.648,0.402,21.59,109.747,24.24,25.25,11.52,0,110.9,13.17,25.08,274.2
"2009-09-27 01:26:30",1276302,8.05,313.2,5.702,0.366,21.55,109.747,24.24,25.25,11.51,0,110.9,13.17,25.08,275.2
"2009-09-27 01:27:00",1276303,7.834,311,4.279,0.341,21.52,109.7465,24.24,25.24,11.53,0,110.9,13.17,25.08,273.0
"2009-09-27 01:27:30",1276304,7.516,309.4,3.31,0.301,21.53,109.7409,24.23,25.25,11.53,0,110.9,13.17,25.07,271.4
"2009-09-27 01:28:00",1276305,7.095,312.5,3.458,0.527,21.56,109.7307,24.2,25.22,11.52,0,110.9,13.17,25.04,274.5
"2009-09-27 01:28:30",1276306,7.643,308,3.366,0.488,21.49,109.7237,24.18,25.22,11.54,0,110.9,13.17,25.02,270.0
"2009-09-27 01:29:00",1276307,6.829,307.3,2.254,0.385,21.52,109.7203,24.18,25.22,11.56,0,110.9,13.17,25.01,269.3
"2009-09-27 01:29:30",1276308,6.231,305.2,3.818,0.381,21.53,109.7144,24.16,25.2,11.58,0,110.9,13.17,25.00,267.2
"2009-09-27 01:30:00",1276309,5.844,307.7,2.899,0.24,21.53,109.7136,24.16,25.18,11.62,0,111,13.17,24.99,269.7
"2009-09-27 01:30:30",1276310,6.063,306.7,3.604,0.225,21.57,109.7146,24.16,25.18,11.63,0,111,13.17,25.00,268.7
"2009-09-27 01:31:00",1276311,7.041,316.2,1.722,0.256,21.41,109.7158,24.16,25.18,11.63,0,111,13.17,25.00,278.2
"2009-09-27 01:31:30",1276312,7.144,315.3,1.675,0.221,21.4,109.7149,24.16,25.17,11.66,0,111,13.17,25.00,277.3
"2009-09-27 01:32:00",1276313,6.783,315.3,2.373,0.304,21.41,109.7071,24.14,25.17,11.65,0,111,13.17,24.98,277.3
"2009-09-27 01:32:30",1276314,6.611,313.2,1.445,0.226,21.44,109.6932,24.11,25.15,11.66,0,110.9,13.17,24.94,275.2
"2009-09-27 01:33:00",1276315,6.611,311.8,1.392,0.321,21.46,109.687,24.09,25.14,11.67,0,110.9,13.17,24.93,273.8
"2009-09-27 01:33:30",1276316,5.881,309.5,2.108,0.189,21.39,109.6895,24.1,25.14,11.71,0,110.9,13.17,24.93,271.5
"2009-09-27 01:34:00",1276317,5.956,305.5,2.283,0.315,21.51,109.6895,24.1,25.13,11.71,0,110.9,13.17,24.93,267.5
"2009-09-27 01:34:30",1276318,5.775,305.1,2.7,0.31,21.51,109.6972,24.12,25.13,11.69,0,110.9,13.17,24.95,267.1
"2009-09-27 01:35:00",1276319,5.461,300.3,1.66,0.137,21.51,109.6971,24.12,25.12,11.71,0,110.9,13.17,24.95,262.3
"2009-09-27 01:35:30",1276320,5.36,301.2,2.891,0.097,21.46,109.6926,24.1,25.09,11.73,0,110.9,13.17,24.94,263.2
"2009-09-27 01:36:00",1276321,5.256,299.9,2.334,0.252,21.5,109.6765,24.06,25.1,11.75,0,110.9,13.17,24.90,261.9
"2009-09-27 01:36:30",1276322,5.354,298.8,2.572,0.205,21.49,109.6721,24.05,25.07,11.75,0,110.9,13.17,24.89,260.8
"2009-09-27 01:37:00",1276323,5.33,299.1,2.303,0.115,21.52,109.673,24.05,25.06,11.77,0,110.9,13.17,24.89,261.1
"2009-09-27 01:37:30",1276324,5.21,299,3.787,0.25,21.45,109.6733,24.06,25.07,11.78,0,110.9,13.17,24.89,261.0
"2009-09-27 01:38:00",1276325,5.419,302.6,0.971,0.218,21.4,109.67,24.05,25.04,11.81,0,110.9,13.17,24.88,264.6
"2009-09-27 01:38:30",1276326,5.095,298.8,2.155,0.138,21.44,109.6514,24,25.03,11.79,0,110.9,13.17,24.83,260.8
"2009-09-27 01:39:00",1276327,5.52,301.5,2.256,0.244,21.41,109.6408,23.97,25.01,11.78,0,110.9,13.18,24.81,263.5
"2009-09-27 01:39:30",1276328,5.625,301.1,1.999,0.174,21.45,109.6405,23.97,25.01,11.79,0,110.9,13.18,24.81,263.1
"2009-09-27 01:40:00",1276329,5.131,298.9,1.812,0.123,21.47,109.6417,23.97,25.01,11.76,0,110.9,13.18,24.81,260.9
"2009-09-27 01:40:30",1276330,5.311,300.2,1.647,0.132,21.46,109.6431,23.98,24.98,11.77,0,110.9,13.18,24.81,262.2
"2009-09-27 01:41:00",1276331,5.234,308.3,4.893,0.339,21.37,109.6377,23.96,24.96,11.8,0,110.9,13.18,24.80,270.3
"2009-09-27 01:41:30",1276332,4.674,296.8,2.626,0.081,21.48,109.6211,23.92,24.95,11.83,0,110.9,13.18,24.76,258.8
"2009-09-27 01:42:00",1276333,4.841,295.3,3.357,0.197,21.47,109.6138,23.9,24.93,11.68,0,110.9,13.18,24.74,257.3
"2009-09-27 01:42:30",1276334,4.739,305.6,3.303,0.283,21.46,109.6145,23.9,24.92,11.71,0,110.9,13.18,24.74,267.6
"2009-09-27 01:43:00",1276335,4.872,306.6,4.231,0.179,21.42,109.6151,23.91,24.92,11.82,0,110.9,13.18,24.74,268.6
"2009-09-27 01:43:30",1276336,5.067,303.9,2.45,0.228,21.38,109.6128,23.9,24.9,11.75,0,110.9,13.18,24.74,265.9
"2009-09-27 01:44:00",1276337,5.771,301.9,1.555,0.364,21.37,109.5943,23.85,24.87,11.74,0,110.9,13.18,24.69,263.9
"2009-09-27 01:44:30",1276338,6.44,301.4,1.532,0.235,21.4,109.5847,23.83,24.87,11.44,0,110.9,13.18,24.66,263.4
"2009-09-27 01:45:00",1276339,6.051,300.9,1.828,0.285,21.39,109.5816,23.82,24.86,11.39,0,110.9,13.18,24.65,262.9
"2009-09-27 01:45:30",1276340,5.939,297.8,2.094,0.367,21.43,109.5816,23.82,24.83,11.39,0,110.9,13.18,24.65,259.8
"2009-09-27 01:46:00",1276341,5.952,295.8,1.04,0.193,21.48,109.5816,23.82,24.83,11.32,0,110.9,13.18,24.65,257.8
"2009-09-27 01:46:30",1276342,6.222,294.6,1.332,0.19,21.41,109.5816,23.82,24.83,11.36,0,110.9,13.18,24.65,256.6
"2009-09-27 01:47:00",1276343,6.512,291.6,1.302,0.319,21.29,109.5763,23.81,24.81,11.44,0,110.9,13.19,24.64,253.6